Startpagina
METAR-TAF:

METAR-TAF

Vliegvelden :

Aeropuerto Benito Salas

Neiva, Colombia

breedte: 02-58N, lengte: 075-18W, hoogte: 439 m

Actueel weer

Dit bericht is 4 uur en het 23 minuten geleden gemaakt, om 04:00 UTC
Weinig wind
Temperatuur 24°C
Vochtigheid 89%
Druk 1014 hPa
Zicht 10 km of meer

METAR: SKNV 210400Z 00000KT 9999 NSC 24/22 A2993

Tijdstip: 03:23 (08:23 UTC)


TAF: ontbreekt

Waarnemingen en weersverwachtingen van meer dan 4000 vliegvelden (METAR en TAF).

De beschikbare stations zijn de gele en rode punten op de kaart.

Ga met uw muis naar het station om de naam te zien.

Klik dan om waarnemingen en weersverwachtingen te zien.

kaart wijzigen: klik op de groene knoppen met een zwart kruis om in te zoomen, op de groene knop met een streepje om uit te zoomen of op de groene pijlen voor aangrenzende kaarten.


METAR-TAF: